map of CAW home
Great Circle Mapper logo
CAW - Airport
Location
City:  Campos dos Goitacazes, Rio de Janeiro, Brazil
Name:Bartolomeu Lysandro
ICAO / IATA:SBCP / CAW

Details
Type:Airport (Aerodrome, Airfield)
Use:Public/Civil
Latitude:2141'54"S (-21.698332)
Longitude:4118'06"W (-41.301668)
Datum:WGS 1984
Elevation:57 ft (17 m)
Variation:23.29W (WMM2015 magnetic declination)
-0.08 annual change
Runways:1
Longest:5066 × 148 ft (1544 × 45 m), paved

Time
Time Zone:UTC-3 (DST-2)
Local Time:

Weather
METAR:SBCP 050200Z 21014KT 9999 FEW020 BKN090 22/19 Q1018
TAF:SBCP 050300Z 0506/0518 21005KT 8000 SCT020 TN20/0508Z TX23/0517Z PROB30 0508/0510 05005KT 5000 DZ BR BKN008
BECMG 0514/0516 12010KT
RMK PGY

Related Locations
Nearby:
Farthest:IWO: 12166 mi / 19579 km
Iwo Jima [Iwo Jima AB], Iwo Jima Island, JP

Find:

   beyond  
but within

Other Information
Maps:
NOTAMs:
Links:
Sources:

  
flag of Brazil
flag of Rio de Janeiro
  

Sectional Chart

Flight Planning
at skyvector.com

Satellite Image

Google Maps Satellite view

 

Copyright © 2004-2015 Karl L. Swartz. All rights reserved.
The Great Circle Mapper name and logo are trademarks of the Great Circle Mapper.
All other trademarks mentioned herein belong to their respective owners.
Please see credits for attibutions and further copyright information.

  Follow gcmap on Facebook Follow gcmap on Twitter Follow gcmap on Google+

hCard Microformat

Geo Microformat